Weather History for Zacatecas Airport, Mexico

Change the Weather History Date:

Monday, January 21, 2013

  Actual Average Record
Temperature  
Mean Temperature 56 °F -  
Max Temperature 66 °F 66 °F 75 °F (2012)
Min Temperature 46 °F 33 °F 26 °F (2000)
Degree Days  
Heating Degree Days 9    
Growing Degree Days 6 (Base 50)    
Moisture  
Dew Point 31 °F    
Average Humidity 40    
Maximum Humidity 58    
Minimum Humidity 26    
Precipitation  
Precipitation 0.00 in - - ()
Sea Level Pressure  
Sea Level Pressure 30.27 in    
Wind  
Wind Speed 6 mph ()    
Max Wind Speed 14 mph    
Max Gust Speed -    
Visibility 10.0 miles    
Events      
Averages and records for this station are not official NWS values.
T = Trace of Precipitation, MM = Missing Value Source: Averaged Metar Reports

Daily Weather History Graph

Daily Weather History Graph

Search for Another Location

Airport:

Trip Planner

Search our weather history database for the weather conditions in past years. The results will help you decide how hot, cold, wet, or windy it might be!

Date:

Astronomy

Jan. 21, 2013 Rise Set
Actual Time 7:33 AM CST 6:31 PM CST
Civil Twilight 7:09 AM CST 6:55 PM CST
Nautical Twilight 6:41 AM CST 7:22 PM CST
Astronomical Twilight 6:14 AM CST 7:49 PM CST
Moon 2:15 PM CST (1/21) 3:02 AM CST (1/21)
Length of Visible Light 11h 45m
Length of Day
10h 58m
Waxing Gibbous, 75% of the Moon is Illuminated
Jan 21
Waxing Gibbous
Jan 26
Full
Feb 3
Last Quarter
Feb 10
New
Feb 17
First Quarter

Hourly Weather History & Observations

Time (CST) Temp. Windchill Dew Point Humidity Pressure Visibility Wind Dir Wind Speed Gust Speed Precip Events Conditions
12:40 AM 51.8 °F - 26.6 °F 38% 30.28 in 10.0 mi SW 6.9 mph - N/A   Mostly Cloudy
1:41 AM 50.0 °F - 26.6 °F 40% 30.28 in 10.0 mi SW 6.9 mph - N/A   Mostly Cloudy
2:41 AM 50.0 °F - 28.4 °F 43% 30.28 in 10.0 mi SSW 8.1 mph - N/A   Mostly Cloudy
3:41 AM 48.2 °F - 28.4 °F 46% 30.26 in 10.0 mi Calm Calm - N/A   Mostly Cloudy
4:41 AM 48.2 °F - 28.4 °F 46% 30.26 in 10.0 mi SSW 5.8 mph - N/A   Mostly Cloudy
5:52 AM 50.0 °F - 28.4 °F 43% 30.28 in 10.0 mi South 9.2 mph - N/A   Mostly Cloudy
6:47 AM 46.4 °F 42.9 °F 28.4 °F 50% 30.28 in 10.0 mi South 6.9 mph - N/A   Mostly Cloudy
7:42 AM 48.2 °F - 28.4 °F 46% 30.30 in 10.0 mi South 8.1 mph - N/A   Mostly Cloudy
8:41 AM 51.8 °F - 30.2 °F 44% 30.30 in 10.0 mi South 9.2 mph - N/A   Mostly Cloudy
10:42 AM 57.2 °F - 33.8 °F 41% 30.35 in 10.0 mi SW 11.5 mph - N/A   Mostly Cloudy
11:41 AM 64.4 °F - 33.8 °F 32% 30.33 in 10.0 mi SSW 11.5 mph - N/A   Mostly Cloudy
1:41 PM 64.4 °F - 32.0 °F 30% 30.25 in 10.0 mi West 5.8 mph - N/A   Mostly Cloudy
2:41 PM 66.2 °F - 32.0 °F 28% 30.22 in 10.0 mi WSW 9.2 mph - N/A   Mostly Cloudy
3:48 PM 66.2 °F - 30.2 °F 26% 30.20 in 10.0 mi SW 5.8 mph - N/A   Mostly Cloudy
4:42 PM 66.2 °F - 32.0 °F 28% 30.20 in 10.0 mi South 8.1 mph - N/A   Mostly Cloudy
5:41 PM 62.6 °F - 32.0 °F 32% 30.21 in 10.0 mi South 13.8 mph - N/A   Mostly Cloudy
6:41 PM 59.0 °F - 32.0 °F 36% 30.23 in 10.0 mi SSE 8.1 mph - N/A   Overcast
7:41 PM 57.2 °F - 33.8 °F 41% 30.25 in 10.0 mi WSW 6.9 mph - N/A   Overcast
9:48 PM 51.8 °F - 32.0 °F 47% 30.28 in 10.0 mi Calm Calm - N/A   Mostly Cloudy
10:45 PM 51.8 °F - 33.8 °F 50% 30.28 in 10.0 mi Calm Calm - N/A   Overcast
11:51 PM 48.2 °F - 33.8 °F 58% 30.28 in 10.0 mi WSW 3.5 mph - N/A   Mostly Cloudy